Vilalleons





Hora UTC 17:45
Temperatura 19.3 ºC
Humitat 89.0 %
Pressió 1011.1 hPa
Pluja 0.4 mm
Velocitat vent 6.4 km/h
Direcció vent ESE

Dades diàries 2020-08-03



Hora UTC (hivern +1h; estiu +2h)
Temperatura (ºC) Humitat (%) Pressió (hPa) Velocitat vent (km/h) Precipitació (mm)
Hora UTC Aire Humitat Pressió Vel. Dir. Vel. Max Dir. Intent. màx 5 min.
00:05 20.3 90.0 1012.2 0.0 SE 0.0 0.0
00:10 20.3 90.0 1012.2 1.6 SE 4.8 0.0
00:15 20.3 90.0 1012.2 0.0 S 8.0 0.0
00:20 20.3 90.0 1012.2 1.6 SW 8.0 0.0
00:25 20.4 90.0 1012.1 0.0 SW 4.8 0.0
00:30 20.4 90.0 1012.1 1.6 SW 4.8 0.0
00:35 20.4 90.0 1012.2 1.6 SW 3.2 0.0
00:40 20.3 90.0 1012.2 1.6 SW 3.2 0.0
00:45 20.3 91.0 1012.1 0.0 SW 3.2 0.0
00:50 20.4 91.0 1012.2 0.0 SW 1.6 0.0
00:55 20.4 90.0 1012.1 1.6 SW 3.2 0.0
01:00 20.4 90.0 1012.2 0.0 NNW 3.2 0.0
01:05 20.3 86.0 1012.2 0.0 NW 11.3 0.0
01:10 20.4 81.0 1012.2 4.8 NNW 12.9 0.0
01:15 20.4 77.0 1011.9 3.2 N 12.9 0.0
01:20 20.5 74.0 1011.9 6.4 WNW 8.0 0.0
01:25 20.4 72.0 1011.8 4.8 NNW 8.0 0.0
01:30 20.3 71.0 1011.7 1.6 WNW 8.0 0.0
01:35 20.2 73.0 1011.8 1.6 WNW 8.0 0.0
01:40 19.9 72.0 1011.7 1.6 W 4.8 0.0
01:45 19.7 71.0 1011.6 1.6 WNW 8.0 0.0
01:50 19.5 71.0 1011.7 8.0 WSW 16.1 0.0
01:55 19.3 71.0 1011.8 12.9 NW 16.1 0.0
02:00 19.3 70.0 1012.0 3.2 WNW 14.5 0.0
02:05 19.2 70.0 1011.8 4.8 NW 11.3 0.0
02:10 19.2 71.0 1012.0 6.4 WSW 12.9 0.0
02:15 19.1 70.0 1011.8 11.3 WSW 12.9 0.0
02:20 19.1 69.0 1011.6 3.2 W 11.3 0.0
02:25 19.1 68.0 1011.6 3.2 W 11.3 0.0
02:30 19.1 69.0 1011.6 3.2 W 9.7 0.0
02:35 19.1 69.0 1011.8 3.2 WNW 11.3 0.0
02:40 19.0 68.0 1012.0 1.6 W 11.3 0.0
02:45 19.0 70.0 1012.2 1.6 SW 6.4 0.0
02:50 19.0 70.0 1012.1 1.6 S 6.4 0.0
02:55 18.9 71.0 1012.1 0.0 NW 6.4 0.0
03:00 18.8 71.0 1011.9 0.0 NW 6.4 0.0
03:05 18.7 72.0 1011.5 1.6 NW 4.8 0.0
03:10 18.4 75.0 1011.5 3.2 ESE 6.4 0.0
03:15 18.1 74.0 1011.5 0.0 ESE 6.4 0.0
03:20 18.0 74.0 1011.8 4.8 N 4.8 0.0
03:25 17.9 75.0 1011.8 1.6 N 6.4 0.0
03:30 17.9 76.0 1012.0 0.0 WSW 8.0 0.0
03:35 17.8 77.0 1012.0 0.0 W 9.7 0.0
03:40 17.8 77.0 1012.4 3.2 WSW 9.7 0.0
03:45 17.6 77.0 1012.2 1.6 W 6.4 0.0
03:50 17.4 76.0 1012.2 1.6 W 6.4 0.0
03:55 17.4 76.0 1012.0 3.2 NNW 6.4 0.0
04:00 17.4 78.0 1012.0 0.0 W 6.4 0.0
04:05 17.3 76.0 1011.7 0.0 W 6.4 0.0
04:10 17.3 80.0 1011.3 4.8 SE 9.7 0.0
04:15 17.2 77.0 1011.3 0.0 SE 9.7 0.0
04:20 17.1 77.0 1011.5 0.0 SE 1.6 0.0
04:25 17.2 77.0 1011.6 0.0 SE 1.6 0.0
04:30 17.2 79.0 1011.8 3.2 S 3.2 0.0
04:35 17.1 79.0 1011.8 1.6 S 3.2 0.0
04:40 16.8 79.0 1011.5 0.0 S 4.8 0.0
04:45 16.7 78.0 1011.5 0.0 S 4.8 0.0
04:50 16.8 77.0 1011.7 1.6 S 3.2 0.0
04:55 16.8 80.0 1011.8 1.6 S 3.2 0.0
05:00 16.7 82.0 1011.3 4.8 SE 4.8 0.0
05:05 16.3 82.0 1011.2 0.0 ESE 6.4 0.0
05:10 16.2 83.0 1011.5 0.0 ESE 6.4 0.0
05:15 16.1 83.0 1011.3 0.0 ESE 3.2 0.0
05:20 16.0 83.0 1011.6 1.6 ESE 3.2 0.0
05:25 15.9 84.0 1011.5 1.6 ESE 1.6 0.0
05:30 15.9 84.0 1011.5 3.2 ESE 3.2 0.0
05:35 15.8 85.0 1011.6 0.0 ESE 4.8 0.0
05:40 15.8 85.0 1011.5 3.2 ESE 4.8 0.0
05:45 15.7 85.0 1011.5 3.2 ESE 4.8 0.0
05:50 15.6 86.0 1011.5 1.6 ESE 9.7 0.0
05:55 15.6 86.0 1011.3 3.2 ESE 9.7 0.0
06:00 15.7 83.0 1011.3 1.6 ESE 6.4 0.0
06:05 15.9 83.0 1011.3 0.0 ESE 3.2 0.0
06:10 16.3 82.0 1011.4 4.8 NNE 4.8 0.0
06:15 16.5 83.0 1011.8 0.0 NNE 4.8 0.0
06:20 16.6 83.0 1011.5 0.0 NNE 3.2 0.0
06:25 16.6 82.0 1011.7 1.6 NNE 3.2 0.0
06:30 16.7 84.0 1011.9 4.8 ENE 4.8 0.0
06:35 16.7 84.0 1011.8 1.6 ENE 4.8 0.0
06:40 16.6 84.0 1011.6 1.6 E 4.8 0.0
06:45 16.7 84.0 1011.8 0.0 E 4.8 0.0
06:50 16.7 82.0 1012.0 1.6 E 4.8 0.0
06:55 16.7 82.0 1012.0 0.0 E 3.2 0.0
07:00 16.8 81.0 1011.8 1.6 NNE 6.4 0.0
07:05 17.1 79.0 1012.0 1.6 NNW 6.4 0.0
07:10 17.1 80.0 1012.6 4.8 W 4.8 0.0
07:15 17.2 80.0 1012.7 3.2 WSW 8.0 0.0
07:20 17.3 77.0 1012.7 1.6 NNW 12.9 0.0
07:25 17.4 76.0 1012.9 0.0 WNW 12.9 0.0
07:30 17.7 77.0 1012.6 1.6 WNW 8.0 0.0
07:35 17.8 77.0 1012.7 0.0 WSW 6.4 0.0
07:40 17.9 74.0 1012.8 8.0 N 12.9 0.0
07:45 18.2 72.0 1012.6 1.6 N 12.9 0.0
07:50 18.3 72.0 1012.6 0.0 NW 6.4 0.0
07:55 18.4 70.0 1012.7 4.8 N 9.7 0.0
08:00 18.5 69.0 1013.0 1.6 N 12.9 0.0
08:05 18.6 70.0 1012.6 6.4 N 12.9 0.0
08:10 18.7 69.0 1012.9 0.0 WNW 8.0 0.0
08:15 18.9 68.0 1012.9 0.0 NW 8.0 0.0
08:20 19.3 67.0 1013.0 6.4 NW 8.0 0.0
08:25 19.4 67.0 1013.0 1.6 WNW 8.0 0.0
08:30 19.6 66.0 1013.1 6.4 NNW 9.7 0.0
08:35 19.7 67.0 1013.1 1.6 WSW 9.7 0.0
08:40 20.1 66.0 1012.9 3.2 W 6.4 0.0
08:45 20.3 64.0 1013.1 1.6 NNE 8.0 0.0
08:50 20.4 65.0 1013.3 1.6 E 8.0 0.0
08:55 20.8 67.0 1013.2 3.2 WSW 8.0 0.0
09:00 21.2 62.0 1013.3 3.2 N 8.0 0.0
09:05 21.3 62.0 1013.4 0.0 N 8.0 0.0
09:10 21.6 62.0 1013.3 1.6 WSW 6.4 0.0
09:15 21.8 60.0 1013.2 1.6 NNW 9.7 0.0
09:20 22.1 64.0 1013.1 0.0 WSW 8.0 0.0
09:25 22.5 59.0 1013.2 1.6 NNE 8.0 0.0
09:30 22.3 59.0 1013.3 4.8 NNW 9.7 0.0
09:35 22.1 60.0 1013.5 1.6 NNW 14.5 0.0
09:40 22.4 59.0 1013.4 1.6 SSE 14.5 0.0
09:45 22.4 60.0 1013.4 1.6 N 9.7 0.0
09:50 22.7 58.0 1013.4 4.8 NNW 16.1 0.0
09:55 22.7 58.0 1013.5 3.2 SW 16.1 0.0
10:00 22.9 57.0 1013.7 6.4 NNW 11.3 0.0
10:05 23.1 56.0 1013.6 3.2 N 9.7 0.0
10:10 23.1 56.0 1013.4 1.6 NNW 14.5 0.0
10:15 23.3 57.0 1013.6 8.0 WNW 17.7 0.0
10:20 23.4 55.0 1013.4 3.2 NW 14.5 0.0
10:25 23.8 56.0 1013.6 6.4 SW 14.5 0.0
10:30 23.9 55.0 1013.5 6.4 N 14.5 0.0
10:35 23.5 56.0 1013.5 4.8 NW 9.7 0.0
10:40 23.6 58.0 1013.5 4.8 SW 9.7 0.0
10:45 24.1 57.0 1013.6 4.8 SW 14.5 0.0
10:50 24.5 54.0 1013.5 6.4 NNE 14.5 0.0
10:55 24.2 55.0 1013.6 6.4 W 11.3 0.0
11:00 24.2 55.0 1013.5 4.8 ESE 11.3 0.0
11:05 24.3 53.0 1013.4 0.0 NNE 8.0 0.0
11:10 24.3 53.0 1013.4 3.2 NNE 12.9 0.0
11:15 24.4 55.0 1013.5 1.6 W 12.9 0.0
11:20 24.4 55.0 1013.3 4.8 SE 11.3 0.0
11:25 24.7 52.0 1013.4 4.8 SSE 9.7 0.0
11:30 25.0 52.0 1013.3 0.0 W 6.4 0.0
11:35 24.9 55.0 1013.2 4.8 WSW 11.3 0.0
11:40 25.0 52.0 1013.3 3.2 ENE 11.3 0.0
11:45 25.3 50.0 1013.1 3.2 N 6.4 0.0
11:50 25.0 53.0 1013.1 4.8 W 12.9 0.0
11:50 25.1 56.0 1013.0 3.2 W 12.9 0.0
12:00 25.6 51.0 1012.8 0.0 W 12.9 0.0
12:05 25.8 49.0 1012.8 6.4 NNE 9.7 0.0
12:10 25.7 50.0 1013.0 0.0 WSW 6.4 0.0
12:15 25.8 48.0 1012.9 8.0 NNW 11.3 0.0
12:20 25.7 57.0 1012.5 4.8 SW 12.9 0.0
12:25 26.2 50.0 1012.6 1.6 WSW 11.3 0.0
12:30 26.7 51.0 1012.5 0.0 WSW 12.9 0.0
12:35 26.8 49.0 1012.4 6.4 WNW 12.9 0.0
12:40 27.1 50.0 1012.4 1.6 SSW 9.7 0.0
12:45 26.9 46.0 1012.3 9.7 W 12.9 0.0
12:50 26.8 46.0 1012.3 1.6 WSW 12.9 0.0
12:55 26.8 46.0 1012.1 4.8 WNW 14.5 0.0
13:00 26.6 46.0 1012.0 6.4 NE 14.5 0.0
13:05 26.4 48.0 1012.1 1.6 N 9.7 0.0
13:10 26.3 50.0 1011.8 1.6 WSW 6.4 0.0
13:15 26.2 47.0 1011.8 3.2 NW 6.4 0.0
13:20 26.6 47.0 1011.7 9.7 W 14.5 0.0
13:25 27.1 50.0 1011.8 3.2 SW 14.5 0.0
13:30 27.1 46.0 1011.8 3.2 WNW 11.3 0.0
13:35 27.0 44.0 1011.5 4.8 WSW 8.0 0.0
13:40 26.8 44.0 1011.4 4.8 NNW 8.0 0.0
13:45 25.9 45.0 1011.3 3.2 NNE 8.0 0.0
13:45 25.6 46.0 1011.5 1.6 NNE 8.0 0.0
13:55 25.4 50.0 1011.2 0.0 NNW 8.0 0.0
14:00 25.7 50.0 1011.0 1.6 SE 6.4 0.0
14:05 25.6 51.0 1011.0 3.2 SE 8.0 0.0
14:10 25.6 54.0 1010.9 1.6 SE 8.0 0.0
14:15 25.3 47.0 1010.9 1.6 ESE 3.2 0.0
14:20 25.3 55.0 1010.8 3.2 E 3.2 0.0
14:25 25.1 55.0 1010.8 6.4 SW 11.3 0.0
14:30 24.9 59.0 1010.8 4.8 ESE 11.3 0.0
14:35 24.7 59.0 1010.8 8.0 SE 14.5 0.0
14:40 24.6 62.0 1010.7 3.2 E 17.7 0.0
14:45 24.8 61.0 1010.8 8.0 SE 17.7 0.0
14:50 25.2 59.0 1010.7 6.4 ESE 16.1 0.0
14:55 25.2 59.0 1010.7 6.4 SE 16.1 0.0
15:00 25.0 61.0 1010.6 6.4 ESE 14.5 0.0
15:05 24.7 62.0 1010.6 3.2 S 12.9 0.0
15:10 24.4 63.0 1010.5 4.8 SE 12.9 0.0
15:15 24.1 64.0 1010.5 4.8 SSE 11.3 0.0
15:20 23.7 64.0 1010.5 1.6 SSE 11.3 0.0
15:25 23.6 68.0 1010.4 6.4 SE 11.3 0.0
15:30 23.7 66.0 1010.4 4.8 ESE 12.9 0.0
15:35 23.7 67.0 1010.3 1.6 ESE 8.0 0.0
15:40 23.7 66.0 1010.4 6.4 ESE 12.9 0.0
15:45 23.4 66.0 1010.4 3.2 ESE 14.5 0.0
15:50 23.2 67.0 1010.3 8.0 SE 14.5 0.0
15:55 23.1 69.0 1010.6 1.6 SE 11.3 0.0
16:00 23.0 69.0 1010.7 0.0 SE 4.8 0.0
16:05 23.1 71.0 1010.7 1.6 SE 6.4 0.0
16:10 23.1 69.0 1010.7 0.0 WSW 8.0 0.0
16:15 22.9 70.0 1010.7 1.6 SSW 12.9 0.0
16:20 22.8 69.0 1010.9 8.0 SE 12.9 0.0
16:25 22.7 69.0 1010.9 3.2 S 12.9 0.0
16:30 22.5 70.0 1010.8 3.2 ESE 6.4 0.0
16:35 22.4 69.0 1010.8 6.4 ESE 6.4 0.0
16:40 22.3 69.0 1010.7 0.0 E 6.4 0.0
16:45 22.2 70.0 1010.7 12.9 SE 12.9 0.0
16:50 22.1 70.0 1010.6 0.0 ESE 16.1 0.0
16:55 22.0 70.0 1010.7 0.0 ESE 1.6 0.0
17:00 21.8 72.0 1010.6 3.2 ESE 12.9 0.0
17:05 21.7 73.0 1010.6 4.8 ESE 12.9 0.0
17:10 21.4 75.0 1010.6 3.2 SE 12.9 0.0
17:15 21.2 76.0 1010.7 6.4 SSE 12.9 0.0
17:20 20.9 78.0 1010.9 1.6 SSE 8.0 0.2
17:25 20.6 81.0 1010.9 3.2 ESE 12.9 0.2
17:30 20.2 83.0 1011.2 1.6 ESE 12.9 0.0
17:35 19.8 85.0 1011.3 4.8 ESE 6.4 0.0
17:40 19.5 87.0 1011.2 3.2 ESE 16.1 0.0
17:45 19.3 89.0 1011.1 6.4 ESE 16.1 0.0
Màxima 27.2 91.0 1013.7 12.9 SE 17.7 0.2
Mínima 15.6 44.0 1010.3
Total 0.4